DIRECTV 15 (40663 NORAD) Tracking and Keplerian Element Data

This shows tracking and keplerian element data for the satellite.

Feedback or suggestion? Click here.




ElementValue
Catalog40663
NameDIRECTV 15
Epoch Orbit1401
Epoch Day80.61801618
Epoch Year2019
RAAN128.4717
Inclination0.0146
Eccentricity2.47E-05
Argument of Perigee67.0787
Mean Anonmoly104.89
Mean Motion1.00272829
Decay Rate-1.41E-06
L11 40663U 15026A 19080.61801618 -.00000141 00000-0 00000+0 0 9998
L22 40663 0.0146 128.4717 0000247 67.0787 104.8900 1.00272829 14019

Live tracking and technical data element details for DIRECTV 15 (NORAD 40663). DIRECTV 15 can be tracked NOW for your location showing map with azimuth and elevation plus other details from your city location.

Track the satellite on the map from your city or location and see movement details for azimuth, elevation, latitude, longitude, range, height, and movement on the map or in text.







IsCatalogInMostPopularTable: catalog: 40663, numindb: 220
Update: records affected: 1



GetName: 40663 DIRECTV 15

Hit Count: updated at: Sat, 23 Mar 2019 02:08:28 GMT